This is the latest recevied weather packets stored in our database for station/object NC4M. If no packets are shown the sender has not sent any weather packets the latest 10 day(s).
| Time | Temp. | Humidity | Pressure | Rain* | Wind** | Luminosity | Snow |
|---|---|---|---|---|---|---|---|
| 1787602604 | 27.22° C | 63% | 1016.9 hPa | 0 mm | - | 210 W/m² | - |
| 1787602299 | 27.22° C | 64% | 1017 hPa | 0 mm | - | 294 W/m² | - |
| 1787601999 | 27.22° C | 66% | 1017.1 hPa | 0 mm | - | 317 W/m² | - |
| 1787601693 | 27.22° C | 63% | 1017 hPa | 0 mm | - | 230 W/m² | - |
| 1787601388 | 27.22° C | 62% | 1017 hPa | 0 mm | - | 201 W/m² | - |
| 1787601087 | 27.78° C | 63% | 1016.8 hPa | 0 mm | - | 242 W/m² | - |
| 1787600781 | 27.78° C | 62% | 1017.3 hPa | 0 mm | - | 222 W/m² | - |
| 1787600477 | 27.22° C | 62% | 1017.1 hPa | 0 mm | - | 248 W/m² | - |
| 1787600173 | 27.22° C | 66% | 1017.4 hPa | 0 mm | - | 223 W/m² | - |
| 1787599869 | 27.22° C | 65% | 1017.3 hPa | 0 mm | - | 237 W/m² | - |
| 1787599565 | 27.22° C | 61% | 1017.5 hPa | 0 mm | - | 240 W/m² | - |
| 1787599262 | 27.22° C | 60% | 1017.3 hPa | 0 mm | - | 317 W/m² | - |
| 1787598956 | 27.22° C | 64% | 1017.4 hPa | 0 mm | - | 273 W/m² | - |
| 1787598652 | 27.22° C | 62% | 1017.5 hPa | 0 mm | - | 253 W/m² | - |
| 1787598352 | 27.22° C | 63% | 1017.6 hPa | 0 mm | - | 272 W/m² | - |
| 1787598049 | 26.67° C | 62% | 1017.4 hPa | 0 mm | - | 286 W/m² | - |
| 1787597748 | 26.67° C | 62% | 1017.6 hPa | 0 mm | - | 260 W/m² | - |
| 1787597447 | 26.67° C | 62% | 1017.7 hPa | 0 mm | - | 265 W/m² | - |
| 1787597142 | 27.22° C | 63% | 1017.6 hPa | 0 mm | - | 228 W/m² | - |
| 1787596838 | 27.22° C | 63% | 1017.6 hPa | 0 mm | - | 262 W/m² | - |
| 1787596533 | 27.22° C | 60% | 1017.9 hPa | 0 mm | - | 277 W/m² | - |
| 1787596228 | 27.22° C | 63% | 1017.8 hPa | 0 mm | - | 276 W/m² | - |
| 1787595925 | 27.22° C | 61% | 1017.9 hPa | 0 mm | - | 389 W/m² | - |
| 1787595620 | 27.22° C | 62% | 1018 hPa | 0 mm | - | 449 W/m² | - |
| 1787595316 | 26.67° C | 65% | 1018.1 hPa | 0 mm | - | 426 W/m² | - |
* Rain latest hour (hover to see other rain measurements)
** Current wind speed in m/s (hover to see current wind gust speed)